Weather in Tesovo

Russia / Smolensk Oblast     55°36′56″N   34°29′12″E
temp.,
°C
wind,
m/s
gust,
m/s
humid.,
%
clouds,
%
prec.,
mm/h
press.,
hPa
HPBL,
m
13 june, sun
sun1300:00+13ssw469041 0.0 100796
03:00+12ssw35935 0.0 100672
06:00+13s35925 0.0 1006129
09:00+18s45780 0.0 1006512
12:00+21s45652 0.4 10051250
15:00+23s365668 0.6 10042081
18:00+20s47795 1.4 1005409
21:00+16sse359192 2.6 100670
14 june, mon
mon1400:00+14s35965 0.7 100891
03:00+13s349642 0.7 100958
06:00+14ssw369831 0.0 1011195
09:00+17sw338347 0.0 1013519
12:00+20sw33686 0.0 1014954
15:00+22wsw24595 0.0 10151277
18:00+22wnw34705 0.0 1014722
21:00+17wsw33836 0.0 101539
15 june, tue
tue1500:00+13w33915 0.0 101638
03:00+13w33945 0.0 101636
06:00+14w24943 0.0 1016113
09:00+18w34720 0.0 1015623
12:00+21wnw356237 0.0 10141457
15:00+21nw556789 0.0 10131033
18:00+21w24680 0.0 10121131
21:00+16wsw237796 0.0 101219
16 june, wed
wed1600:00+14nw3376100 0.0 101240
03:00+12nw348496 0.0 101356
06:00+14nnw379548 0.0 1014223
09:00+18nnw568253 0.0 1014769
12:00+20nnw666715 0.1 10151342
15:00+20nnw566294 0.1 10161361
18:00+19n61068100 0.0 1017507
21:00+14nnw4117985 0.0 1019220
17 june, thu
thu1700:00+11n410785 0.0 1021173
03:00+9n33755 0.0 102332
06:00+10n35800 0.0 1024115
09:00+15nne34695 0.0 1025442
12:00+18n45535 0.0 10251105
15:00+20n45525 0.0 10251519
18:00+20nne24645 0.0 10251146
21:00+15ese22772 0.0 102611